Content
SEND FEEDBACK

Daily
Averages
Monthly
Summary
United States of America

HETTINGER, NORTH DAKOTA


Home > North America > United States > North Dakota
Elevation: 2715 feet     Latitude: 45 59N     Longitude: 102 39W

WEATHER
 
SELECT A DAY
Number of Records: 189,253;   Date Range: 7/1/96 - 9/21/14
 
SHARE

PRINT THIS DATA

[ ← Previous Day ]
WEATHER ALMANAC - AUGUST 7, 2014
[ Next Day → ]
[ °C ]   °F
Weather ElementAverageHighLow
Temperature67.6 °F77 °F (3:53 pm)62.1 °F (11:53 pm)
Dewpoint62.4 °F64 °F (12:08 pm)59 °F (11:53 pm)
Humidity83.8 %93 % (12:53 am)62 % (4:53 pm)
Barometer29.99 in30.03 in (1:31 am)29.94 in (4:53 pm)
Wind Speed6.1 mph10.4 mph (12:53 am)
Weather ElementAverage
Visibility8.8 mi
Wind DirectionESE (122.8 °)

Weather ElementTotal
Precipitation---
Cooling Degree Days4.6 (Base 65)
Growing Degree Days19.6 (Base 50)
Averaged from 29 records on August 7, 2014
WEATHER CONDITIONS BREAKOUT
WIND DIRECTION BREAKOUT
WEATHER BY HOUR - AUGUST 7, 2014
[ °C ]   °F
Local TimeTemperatureDewpointHumidityBarometerVisibilityWind DirectionWind SpeedGust SpeedPrecipitationEventsConditions
12:53 AM64.0 °F62.1 °F93 %30.00 in9.0 miSSE (150°)10.4 mphOvercast
1:31 AM64.0 °F62.1 °F93 %30.03 in9.0 miSSE (160°)8.1 mphOvercast
1:53 AM64.0 °F62.1 °F93 %29.99 in8.0 miSSE (160°)8.1 mphOvercast
2:53 AM64.0 °F62.1 °F93 %29.99 in7.0 miSSE (160°)8.1 mphOvercast
3:53 AM63.0 °F61.0 °F93 %29.98 in7.0 miSSE (160°)9.2 mphOvercast
4:53 AM64.0 °F62.1 °F93 %29.98 in7.0 miSouth (180°)3.5 mphOvercast
5:53 AM64.0 °F62.1 °F93 %29.99 in8.0 miSSE (150°)5.8 mphOvercast
6:53 AM64.0 °F62.1 °F93 %29.99 in7.0 miSSE (160°)5.8 mphOvercast
7:37 AM64.0 °F62.1 °F93 %30.03 in2.5 miSE (140°)5.8 mphOvercast
7:53 AM64.0 °F62.1 °F93 %30.00 in4.0 miSE (130°)4.6 mphOvercast
8:53 AM64.9 °F62.1 °F90 %30.00 in8.0 miSSE (150°)6.9 mphOvercast
9:29 AM66.0 °F62.1 °F87 %30.03 in10.0 miSE (140°)4.6 mphOvercast
9:53 AM64.9 °F62.1 °F90 %30.00 in9.0 miSE (140°)6.9 mphOvercast
10:53 AM66.0 °F63.0 °F90 %30.00 in10.0 miSouth (190°)4.6 mphOvercast
11:53 AM69.1 °F63.0 °F81 %29.99 in10.0 miSouth (170°)6.9 mphOvercast
12:08 PM70.0 °F64.0 °F81 %30.02 in10.0 miSSE (150°)4.6 mphOvercast
12:53 PM71.1 °F64.0 °F78 %29.98 in10.0 miSSE (150°)8.1 mphOvercast
1:53 PM73.0 °F64.0 °F73 %29.97 in10.0 miVariable3.5 mphOvercast
2:24 PM73.9 °F63.0 °F68 %30.01 in10.0 miESE (120°)3.5 mphPartly Cloudy
2:53 PM73.9 °F64.0 °F71 %29.96 in10.0 miCalmClear
3:53 PM77.0 °F64.0 °F64 %29.95 in10.0 miVariable3.5 mphClear
4:53 PM77.0 °F63.0 °F62 %29.94 in10.0 miEast (100°)6.9 mphClear
5:53 PM75.9 °F63.0 °F64 %29.94 in10.0 miENE (70°)8.1 mphClear
6:53 PM73.9 °F63.0 °F68 %29.94 in10.0 miEast (90°)6.9 mphClear
7:53 PM69.1 °F63.0 °F81 %29.96 in10.0 miEast (90°)9.2 mphClear
8:53 PM66.9 °F62.1 °F84 %29.97 in10.0 miEast (100°)9.2 mphClear
9:53 PM64.9 °F61.0 °F87 %29.98 in10.0 miESE (120°)6.9 mphClear
10:53 PM63.0 °F60.1 °F90 %29.98 in10.0 miSE (130°)4.6 mphClear
11:53 PM62.1 °F59.0 °F90 %29.99 in10.0 miEast (100°)3.5 mphClear
Hourly data recorded from KHEI, located miles away from Hettinger, North Dakota







STORIES FROM OUR PARTNERS